Volver al catálogo

COSMOS 1275 DEB

ActivoPO
NORAD 14357·DEBRIS·🇷🇺 Russia

Lanzado Jun 4, 1981 desde Plesetsk Cosmodrome

Loading…

Próximos Pases (próximas 24 horas)

TLE

ActualizadoSource: Space-Track

Época: Sep 14, 2026, 00:35 UTC

1 14357U 81053HQ  26257.02476574  .00001209  00000-0  57813-3 0  9993
2 14357  82.8417 279.2619 0041942 127.2866 260.9801 14.17951081216372

Sigue COSMOS 1275 DEB en tiempo real con AllMySat

Download on the App Store